Home > Weather > Arica > Past weeks

Flag for Chile Past Weather in Arica, Chile — Yesterday and Last 2 Weeks

Now
63 °F

Overcast.


Feels Like: 63 °F
Forecast: 58 / 67 °F
Wind: 3 mph from South

Location: Arica Airport

Current Time: Jul 26, 2016 at 11:53:31 PM

Latest Report: Jul 26, 2016 at 11:00 PM


Visibility: N/A

Pressure: 29.98 "Hg

Humidity: 73%

Dew Point: 54 °F

Location of AricaLocation

Past Weather in Arica — Graph

°F

Arica Temperature Yesterday

Maximum temperature yesterday: 66 °F (at 2:00 PM)
Minimum temperature yesterday: 54 °F (at 6:00 AM)
Average temperature yesterday: 61 °F

High & Low Weather Summary for the Past Weeks

 TemperatureHumidityPressure
High66 °F (Jul 12, 1:00 PM)83% (Jul 11, 10:00 PM)30.12 "Hg (Jul 11, 10:00 PM)
Low54 °F (Jul 16, 12:00 AM)56% (Jul 17, 11:00 AM)29.86 "Hg (Jul 26, 3:00 PM)
Average62 °F71%30.02 "Hg
* Reported Jul 11 10:00 PM — Jul 26 10:00 PM, Arica, Weather by CustomWeather, © 2016

Note: Actual official high and low records may vary slightly from our data, if they occured in-between our weather recording intervals... More about our weather records

Advertising

Arica Weather History for the Previous 24 Hours

Scroll right to see more
 ConditionsComfort  
Time TempWeatherWind HumidityBarometerVisibility
10:00 PM
Tue, Jul 26
63 °FOvercast.3 mph73%29.98 "HgN/A
9:00 PM63 °FOvercast.5 mph73%29.95 "HgN/A
8:00 PM63 °FOvercast.5 mph73%29.95 "HgN/A
7:00 PM63 °FOvercast.5 mph73%29.92 "HgN/A
6:00 PM63 °FPartly sunny.8 mph73%29.92 "HgN/A
5:00 PM64 °FScattered clouds.8 mph68%29.89 "HgN/A
4:00 PM64 °FSunny.9 mph68%29.86 "Hg10 mi
3:00 PM64 °FSunny.10 mph68%29.86 "Hg10 mi
2:00 PM64 °FSunny.10 mph64%29.89 "Hg10 mi
1:00 PM64 °FSunny.13 mph64%29.89 "Hg10 mi
12:00 PM66 °FSunny.9 mph60%29.92 "Hg10 mi
11:00 AM64 °FOvercast.2 mph64%29.95 "HgN/A
10:00 AM63 °FOvercast.2 mph68%29.95 "HgN/A
9:00 AM61 °FOvercast.10 mph68%29.95 "HgN/A
8:00 AM61 °FOvercast.8 mph68%29.95 "HgN/A
7:00 AM61 °FOvercast.No wind72%29.95 "HgN/A
6:00 AM61 °FOvercast.2 mph72%29.95 "HgN/A
5:00 AM61 °FOvercast.5 mph72%29.95 "HgN/A
4:00 AM61 °FOvercast.3 mph72%29.95 "HgN/A
3:00 AM61 °FOvercast.2 mph72%29.95 "HgN/A
2:00 AM63 °FOvercast.2 mph73%29.98 "HgN/A
1:00 AM63 °FOvercast.3 mph73%29.98 "HgN/A
12:00 AM63 °FOvercast.3 mph73%29.98 "HgN/A
11:00 PM
Mon, Jul 25
63 °FOvercast.2 mph73%30.01 "HgN/A
Weather by CustomWeather, © 2016

See weather overviewHow to use our weather pages